Location: Newark
(55.7167°N, 12.5667°E)
Time: 00:17:14
(UTC+00:00)

N. Korean satellite - Pass Details

Date: 14 December 2019
Orbit: 454 x 508 km, 97.2° (Epoch: 17 January)

Event Time Altitude Azimuth Distance (km) Brightness Sun altitude
Rises 04:49:03 0° 18° (NNE) 2,552 10.3 -21.1°
Reaches altitude 10° 04:51:13 10° 25° (NNE) 1,658 9.4 -20.8°
Maximum altitude 04:54:37 43° 98° (E) 678 7.7 -20.3°
Drops below altitude 10° 04:57:57 10° 172° (S) 1,617 9.4 -19.8°
Sets 05:00:02 0° 179° (S) 2,480 10.3 -19.6°
